Hourly Data Report for October 03, 2014

All times are specified in Local Standard Time (LST). Add 1 hour to adjust for Daylight Saving Time where and when it is observed.

QIKIQTARJUAQ A
NUNAVUT

67°32'48.000" N
64°01'54.000" W
5.50 m
2400577
YVM

Download Data

Hourly Data (October 2014)
Hourly Data Report for October 3, 2014
Temp Definition
°C
Dew Point Temp Definition
°C
Rel Hum Definition
%
Wind Dir Definition
10's deg

Wind Spd Definition
km/h
Visibility Definition
km
Stn Press Definition
kPa
Hmdx Definition


Wind Chill Definition


Weather Definition


TIME
00:00 Legend Double Dagger -7.9 -12.5 70 15 5 16.1 100.93   -11 LegendNANA
01:00 Legend Double Dagger -8.1 -12.4 71 17 8 16.1 100.94   -12 LegendNANA
02:00 Legend Double Dagger -7.1 -12.2 67 11 8 16.1 100.94   -11 LegendNANA
03:00 Legend Double Dagger -6.8 -10.9 73 15 5 16.1 100.96   -9 LegendNANA
04:00 Legend Double Dagger -7.3 -11.2 74 14 8 16.1 100.97   -11 LegendNANA
05:00 Legend Double Dagger -7.8 -11.5 75 LegendMM 4 16.1 100.99   -10 LegendNANA
06:00 Legend Double Dagger -7.2 -11.6 71 19 9 16.1 101.01   -12 LegendNANA
07:00 Legend Double Dagger -5.2 -10.2 68 18 21 16.1 101.00   -12 LegendNANA
08:00 Legend Double Dagger -4.8 -9.9 68 18 26 16.1 100.99   -12 LegendNANA
09:00 Legend Double Dagger -3.9 -10.6 60 18 13 16.1 101.00   -9 LegendNANA
10:00 Legend Double Dagger -3.9 -10.8 59 13 5 16.1 101.01   -6 LegendNANA
11:00 Legend Double Dagger -4.0 -10.2 62 16 4 16.1 101.00   -6 LegendNANA
12:00 Legend Double Dagger -2.7 -9.0 62 21 13 16.1 101.01   -7 LegendNANA
13:00 Legend Double Dagger -3.4 -10.1 60 LegendMM 4 16.1 101.05   -5 LegendNANA
14:00 Legend Double Dagger -2.1 -9.7 56 19 17 16.1 101.06   -7 LegendNANA
15:00 Legend Double Dagger -2.5 -10.3 55 20 15 16.1 101.08   -7 LegendNANA
16:00 Legend Double Dagger -3.0 -9.7 60 20 9 16.1 101.12   -7 LegendNANA
17:00 Legend Double Dagger -2.7 -9.4 60 LegendMM 4 16.1 101.16   -4 LegendNANA
18:00 Legend Double Dagger -1.9 -8.0 63 21 15 16.1 101.18   -7 LegendNANA
19:00 Legend Double Dagger -2.0 -7.5 66 20 18 16.1 101.21   -7 LegendNANA
20:00 Legend Double Dagger -1.7 -7.1 67 20 13 16.1 101.22   -6 LegendNANA
21:00 Legend Double Dagger -1.4 -6.1 71 20 11 16.1 101.23   -5 LegendNANA
22:00 Legend Double Dagger -1.6 -5.5 75 20 9 16.1 101.26   -5 LegendNANA
23:00 Legend Double Dagger -1.4 -5.5 74 LegendMM 4 16.1 101.28   -3 LegendNANA

Notes on Data Quality.

Legend

  • E = Estimated
  • M = Missing
  • NA = Not Available
  • ‡ = Partner data that is not subject to review by the National Climate Archives
Date modified: